Pagina principale
METAR-TAF:

METAR-TAF

Aeroporti :

Coatesville, Pennsylvania, Stati Uniti

latitudine: 39-58-44N, longitudine: 075-51-56W, altezza: 201 m

Osservazione

Il bollettino è stato emesso 15 minuti fa, alle 01:35 UTC
Vento calmo
Temperature 9°C
Umidità 76%
Pressione 1019 hPa
Visibilità: 16.1 km
Cielo sereno

METAR: KMQS 170135Z AUTO 00000KT 10SM CLR 09/05 A3010 RMK AO2

Ora: 21:50 (01:50 UTC)


TAF: mancante

Osservazioni e previsioni meteorologiche di più di 4000 aeroporti (messaggi METAR e TAF).

Le stazioni disponibili sono rappresentate dai dischi gialli e rossi sulla carta.

Puntare il mouse per vedere il nome della stazione.

Clicca sopra per visualizzare le osservazioni e previsioni meteorologiche.

Per cambiare la mappa : fare clic sui pulsanti verdi con una croce nera per ingrandire, il pulsante verde con un trattino per diminuire, o sulla freccia verde per le mappe adiacenti.


METAR-TAF: